• In Belarus
  • List of Countries
  • For 7 days
  • Water Temperature
  • Weather Map
  • Weather Widgets
  • user-avatar
    Login

    Hourly Weather Hasselt

    Today, 16 October, Wednesday

    Time Temperature Precipitation Wind Pressure Humidity
    00:00 +12°C° 0 mm 4 mps 754 mmHg 85%
    01:00 +12°C° 0 mm 5 mps 754 mmHg 85%
    02:00 +12°C° 0 mm 5 mps 753 mmHg 86%
    03:00 +10°C° 0 mm 5 mps 753 mmHg 87%
    04:00 +10°C° 0 mm 5 mps 753 mmHg 88%
    05:00 +9°C° 0 mm 5 mps 753 mmHg 88%
    06:00 +8°C° 0 mm 4 mps 753 mmHg 89%
    07:00 +9°C° 0 mm 5 mps 753 mmHg 86%
    08:00 +11°C° 0 mm 6 mps 753 mmHg 84%
    09:00 +12°C° 0 mm 7 mps 753 mmHg 81%
    10:00 +12°C° 0.7 mm 7 mps 753 mmHg 84%
    11:00 +12°C° 0.7 mm 7 mps 753 mmHg 87%
    12:00 +11°C° 0.7 mm 7 mps 752 mmHg 90%
    13:00 +12°C° 0.2 mm 7 mps 752 mmHg 88%
    14:00 +12°C° 0.2 mm 7 mps 752 mmHg 87%
    15:00 +12°C° 0.2 mm 7 mps 752 mmHg 85%
    16:00 +12°C° 0.2 mm 7 mps 752 mmHg 86%
    17:00 +12°C° 0.2 mm 7 mps 752 mmHg 87%
    18:00 +13°C° 0.2 mm 6 mps 752 mmHg 88%
    19:00 +12°C° 1.2 mm 7 mps 752 mmHg 89%
    20:00 +12°C° 1.2 mm 7 mps 752 mmHg 90%
    21:00 +12°C° 1.2 mm 7 mps 752 mmHg 91%
    22:00 +12°C° 0.3 mm 7 mps 752 mmHg 90%
    23:00 +12°C° 0.3 mm 7 mps 752 mmHg 90%

    Tomorrow, 17 October, Thursday

    Time Temperature Precipitation Wind Pressure Humidity
    00:00 +13°C° 0.3 mm 6 mps 753 mmHg 89%
    01:00 +13°C° 0.1 mm 6 mps 753 mmHg 90%
    02:00 +13°C° 0.1 mm 5 mps 753 mmHg 91%
    03:00 +13°C° 0.1 mm 4 mps 753 mmHg 91%
    04:00 +12°C° 0 mm 4 mps 753 mmHg 92%
    05:00 +12°C° 0 mm 3 mps 754 mmHg 92%
    06:00 +12°C° 0 mm 2 mps 754 mmHg 92%
    07:00 +13°C° 0 mm 2 mps 754 mmHg 88%
    08:00 +14°C° 0 mm 2 mps 755 mmHg 84%
    09:00 +15°C° 0 mm 2 mps 755 mmHg 80%
    10:00 +14°C° 0 mm 3 mps 755 mmHg 79%
    11:00 +14°C° 0 mm 3 mps 755 mmHg 77%
    12:00 +16°C° 0 mm 3 mps 755 mmHg 75%
    13:00 +16°C° 0 mm 3 mps 755 mmHg 75%
    14:00 +16°C° 0 mm 3 mps 755 mmHg 75%
    15:00 +14°C° 0 mm 3 mps 755 mmHg 75%
    16:00 +14°C° 0 mm 3 mps 755 mmHg 78%
    17:00 +14°C° 0 mm 2 mps 755 mmHg 80%
    18:00 +14°C° 0 mm 2 mps 755 mmHg 82%
    19:00 +14°C° 0.1 mm 2 mps 755 mmHg 83%
    20:00 +13°C° 0.1 mm 3 mps 755 mmHg 83%
    21:00 +12°C° 0.1 mm 3 mps 755 mmHg 84%
    22:00 +12°C° 0.2 mm 3 mps 754 mmHg 87%
    23:00 +12°C° 0.2 mm 3 mps 754 mmHg 90%

    Day after tomorrow, 18 October, Friday

    Time Temperature Precipitation Wind Pressure Humidity
    00:00 +12°C° 0.2 mm 3 mps 754 mmHg 94%
    01:00 +12°C° 0.4 mm 4 mps 753 mmHg 92%
    02:00 +13°C° 0.4 mm 4 mps 753 mmHg 91%
    03:00 +13°C° 0.4 mm 5 mps 753 mmHg 90%
    04:00 +13°C° 0 mm 5 mps 753 mmHg 89%
    05:00 +12°C° 0 mm 5 mps 753 mmHg 88%
    06:00 +12°C° 0 mm 5 mps 752 mmHg 87%
    07:00 +11°C° 0 mm 6 mps 753 mmHg 83%
    08:00 +12°C° 0 mm 7 mps 753 mmHg 80%
    09:00 +12°C° 0 mm 8 mps 753 mmHg 77%
    10:00 +13°C° 0 mm 8 mps 753 mmHg 72%
    11:00 +15°C° 0 mm 9 mps 753 mmHg 66%
    12:00 +16°C° 0 mm 9 mps 753 mmHg 61%
    13:00 +16°C° 0 mm 8 mps 753 mmHg 61%
    14:00 +15°C° 0 mm 7 mps 753 mmHg 60%
    15:00 +15°C° 0 mm 5 mps 753 mmHg 60%
    16:00 +14°C° 0 mm 5 mps 753 mmHg 64%
    17:00 +12°C° 0 mm 4 mps 753 mmHg 69%
    18:00 +11°C° 0 mm 3 mps 754 mmHg 73%
    19:00 +11°C° 0 mm 3 mps 754 mmHg 73%
    20:00 +11°C° 0 mm 3 mps 754 mmHg 74%
    21:00 +10°C° 0 mm 3 mps 754 mmHg 74%
    22:00 +10°C° 0 mm 3 mps 754 mmHg 77%
    23:00 +11°C° 0 mm 3 mps 753 mmHg 79%

    19 October, Saturday

    Time Temperature Precipitation Wind Pressure Humidity
    00:00 +11°C° 0 mm 3 mps 753 mmHg 82%
    01:00 +11°C° 0.1 mm 3 mps 752 mmHg 83%
    02:00 +11°C° 0.1 mm 4 mps 752 mmHg 85%
    03:00 +11°C° 0.1 mm 4 mps 752 mmHg 87%
    04:00 +11°C° 0.1 mm 4 mps 752 mmHg 87%
    05:00 +11°C° 0.1 mm 4 mps 751 mmHg 87%
    06:00 +11°C° 0.1 mm 4 mps 751 mmHg 87%
    07:00 +11°C° 0.1 mm 4 mps 751 mmHg 87%
    08:00 +12°C° 0.1 mm 4 mps 751 mmHg 87%
    09:00 +12°C° 0.1 mm 4 mps 751 mmHg 87%
    10:00 +13°C° 0.1 mm 5 mps 751 mmHg 84%
    11:00 +14°C° 0.1 mm 5 mps 750 mmHg 80%
    12:00 +15°C° 0.1 mm 5 mps 750 mmHg 76%
    13:00 +14°C° 0.1 mm 5 mps 750 mmHg 78%
    14:00 +14°C° 0.1 mm 4 mps 750 mmHg 80%
    15:00 +13°C° 0.1 mm 4 mps 750 mmHg 83%
    16:00 +13°C° 0.2 mm 4 mps 750 mmHg 85%
    17:00 +12°C° 0.2 mm 4 mps 750 mmHg 88%
    18:00 +12°C° 0.2 mm 4 mps 751 mmHg 90%
    19:00 +12°C° 0.1 mm 3 mps 751 mmHg 91%
    20:00 +11°C° 0.1 mm 3 mps 751 mmHg 92%
    21:00 +11°C° 0.1 mm 3 mps 752 mmHg 92%
    22:00 +10°C° 0 mm 3 mps 752 mmHg 93%
    23:00 +10°C° 0 mm 3 mps 752 mmHg 93%

    20 October, Sunday

    Time Temperature Precipitation Wind Pressure Humidity
    00:00 +10°C° 0 mm 3 mps 753 mmHg 94%
    01:00 +9°C° 0 mm 3 mps 753 mmHg 94%
    02:00 +9°C° 0 mm 2 mps 753 mmHg 94%
    03:00 +9°C° 0 mm 2 mps 754 mmHg 94%
    04:00 +8°C° 0 mm 2 mps 754 mmHg 93%
    05:00 +8°C° 0 mm 2 mps 754 mmHg 93%
    06:00 +8°C° 0 mm 2 mps 755 mmHg 93%
    07:00 +9°C° 0 mm 2 mps 755 mmHg 89%
    08:00 +12°C° 0 mm 2 mps 756 mmHg 86%
    09:00 +12°C° 0 mm 3 mps 756 mmHg 83%
    10:00 +13°C° 0 mm 3 mps 756 mmHg 77%
    11:00 +15°C° 0 mm 2 mps 756 mmHg 72%
    12:00 +16°C° 0 mm 2 mps 756 mmHg 66%
    13:00 +16°C° 0 mm 2 mps 756 mmHg 68%
    14:00 +16°C° 0 mm 2 mps 756 mmHg 69%
    15:00 +16°C° 0 mm 2 mps 756 mmHg 71%
    16:00 +15°C° 0 mm 2 mps 756 mmHg 76%
    17:00 +13°C° 0 mm 1 mps 757 mmHg 80%
    18:00 +12°C° 0 mm 1 mps 757 mmHg 85%
    19:00 +12°C° 0 mm 1 mps 757 mmHg 86%
    20:00 +12°C° 0 mm 2 mps 758 mmHg 87%
    21:00 +12°C° 0 mm 2 mps 758 mmHg 87%
    22:00 +12°C° 0.1 mm 2 mps 758 mmHg 89%
    23:00 +12°C° 0.1 mm 2 mps 758 mmHg 90%

    21 October, Monday

    Time Temperature Precipitation Wind Pressure Humidity
    00:00 +10°C° 0.1 mm 2 mps 758 mmHg 92%
    01:00 +12°C° 0.1 mm 2 mps 758 mmHg 92%
    02:00 +12°C° 0.1 mm 2 mps 758 mmHg 93%
    03:00 +12°C° 0.1 mm 2 mps 758 mmHg 93%
    04:00 +12°C° 0.1 mm 2 mps 758 mmHg 93%
    05:00 +12°C° 0.1 mm 2 mps 758 mmHg 93%
    06:00 +12°C° 0.1 mm 2 mps 759 mmHg 93%
    07:00 +13°C° 0 mm 2 mps 759 mmHg 90%
    08:00 +13°C° 0 mm 2 mps 759 mmHg 88%
    09:00 +13°C° 0 mm 3 mps 759 mmHg 85%
    10:00 +13°C° 0 mm 3 mps 759 mmHg 84%
    11:00 +14°C° 0 mm 3 mps 759 mmHg 84%
    12:00 +14°C° 0 mm 3 mps 760 mmHg 83%
    13:00 +14°C° 0 mm 3 mps 759 mmHg 83%
    14:00 +14°C° 0 mm 4 mps 759 mmHg 83%
    15:00 +14°C° 0 mm 4 mps 759 mmHg 83%
    16:00 +14°C° 0 mm 4 mps 759 mmHg 85%
    17:00 +13°C° 0 mm 4 mps 759 mmHg 87%
    18:00 +13°C° 0 mm 4 mps 759 mmHg 89%
    19:00 +13°C° 0.1 mm 4 mps 759 mmHg 90%
    20:00 +13°C° 0.1 mm 4 mps 760 mmHg 91%
    21:00 +13°C° 0.1 mm 4 mps 760 mmHg 92%
    22:00 +13°C° 0 mm 4 mps 760 mmHg 91%
    23:00 +13°C° 0 mm 4 mps 759 mmHg 91%
    Show more